Overview Statistics Trail Chart Weather Telemetry Raw packets
 

This is the latest recevied weather packets stored in our database for station/object W0WC. If no packets are shown the sender has not sent any weather packets the latest 10 day(s).

<< 43 44 45 46 47 48 49 >>
Time Temp. Humidity Pressure Rain* Wind** Luminosity Snow
1788394461 36.11° C 34% 1013.4 hPa 0 mm - 25 W/m² -
1788394160 36.11° C 34% 1013.4 hPa 0 mm - 29 W/m² -
1788393856 36.67° C 34% 1013.3 hPa 0 mm - 30 W/m² -
1788393554 36.67° C 33% 1013.4 hPa 0 mm - 38 W/m² -
1788393249 36.67° C 33% 1013.5 hPa 0 mm - 48 W/m² -
1788392949 36.67° C 33% 1013.5 hPa 0 mm - 64 W/m² -
1788392644 36.67° C 33% 1013.5 hPa 0 mm - 71 W/m² -
1788392342 36.67° C 33% 1013.5 hPa 0 mm - 57 W/m² -
1788392037 37.22° C 33% 1013.4 hPa 0 mm - 44 W/m² -
1788391735 37.22° C 33% 1013.7 hPa 0 mm - 71 W/m² -
1788391431 37.22° C 33% 1013.7 hPa 0 mm - 106 W/m² -
1788391130 37.22° C 33% 1013.6 hPa 0 mm - 111 W/m² -
1788390825 37.78° C 32% 1013.6 hPa 0 mm - 91 W/m² -
1788390521 37.78° C 32% 1013.4 hPa 0 mm - 132 W/m² -
1788390220 37.78° C 32% 1013.7 hPa 0 mm - 160 W/m² -
1788389920 37.22° C 33% 1013.7 hPa 0 mm - 172 W/m² -
1788389615 37.78° C 33% 1013.8 hPa 0 mm - 191 W/m² -
1788389313 37.78° C 33% 1013.6 hPa 0 mm - 204 W/m² -
1788389008 37.78° C 32% 1013.6 hPa 0 mm - 225 W/m² -
1788388706 38.33° C 31% 1013.7 hPa 0 mm - 229 W/m² -
1788388406 37.78° C 32% 1013.7 hPa 0 mm - 263 W/m² -
1788388105 38.33° C 32% 1014 hPa 0 mm - 270 W/m² -
1788387804 38.33° C 32% 1013.9 hPa 0 mm - 295 W/m² -
1788387498 37.78° C 31% 1013.8 hPa 0 mm - 313 W/m² -
1788387198 37.78° C 32% 1014 hPa 0 mm - 330 W/m² -

* Rain latest hour (hover to see other rain measurements)
** Current wind speed in m/s (hover to see current wind gust speed)